Tracking 30685 objects as of 18-Jun-2025
HD Live streaming from Space Station
objects crossing your sky now

STARLINK-31938

Track STARLINK-31938 now!
10-day predictions
STARLINK-31938 is classified as:


NORAD ID: 59865
Int'l Code: 2024-098H
Perigee: 489.6 km
Apogee: 490.8 km
Inclination: 43.0 °
Period: 94.3 minutes
Semi major axis: 6861 km
RCS: Unknown
Launch date: May 24, 2024
Source: United States (US)
Launch site: AIR FORCE EASTERN TEST RANGE (AFETR)
Your satellite tracking list
Your tracking list is empty




NASA's NSSDC Master Catalog

Two Line Element Set (TLE):
1 59865U 24098H   25169.49059915 -.00002268  00000-0 -72915-4 0  9999
2 59865  43.0008 329.7627 0000882 267.6580  92.4171 15.27580850 61448
Source of the keplerian elements: AFSPC